GW1230 Weather Reports


Display with metric or nautical units.
time (UTC)temp
F
wind
direction
speed
MPH
gust
MPH
rain 1hr
in
rain 24hr
in
rain mn
in
humidity
%
barometer
mb
20260502222043 73 318 4.0 7.0 0.00 0.00 0.00 51 1014.6
20260502221539 72 347 6.0 8.0 0.00 0.00 0.00 51 1014.4
20260502221037 72 303 9.0 10.0 0.00 0.00 0.00 50 1014.5
20260502220532 73 332 5.0 11.0 0.00 0.00 0.00 48 1014.4
20260502220029 72 338 8.0 10.0 0.00 0.00 0.00 49 1014.7
20260502215526 73 358 3.0 3.0 0.00 0.00 0.00 50 1015.0
20260502215023 72 331 8.0 10.0 0.00 0.00 0.00 51 1014.8
20260502214520 72 12 3.0 5.0 0.00 0.00 0.00 52 1014.8
20260502214018 71 296 8.0 10.0 0.00 0.00 0.00 53 1014.9
20260502213514 71 344 6.0 9.0 0.00 0.00 0.00 54 1015.0
20260502213012 71 316 8.0 10.0 0.00 0.00 0.00 54 1014.9
20260502212511 72 306 8.0 13.0 0.00 0.00 0.00 52 1014.8
20260502212008 71 329 6.0 7.0 0.00 0.00 0.00 56 1014.9
20260502211503 71 316 6.0 8.0 0.00 0.00 0.00 57 1015.2
20260502211001 70 19 4.0 7.0 0.00 0.00 0.00 59 1014.9
20260502210457 70 332 9.0 13.0 0.00 0.00 0.00 60 1015.5
20260502205955 71 318 7.0 9.0 0.00 0.00 0.00 58 1015.3
20260502205451 70 354 6.0 9.0 0.00 0.00 0.00 61 1015.1
20260502204948 70 317 8.0 9.0 0.00 0.00 0.00 62 1015.1
20260502204445 71 330 9.0 11.0 0.00 0.00 0.00 61 1015.2
20260502203943 71 326 3.0 5.0 0.00 0.00 0.00 60 1015.3
20260502203440 69 336 7.0 9.0 0.00 0.00 0.00 63 1015.3
20260502202936 70 325 2.0 8.0 0.00 0.00 0.00 62 1015.2
20260502202433 69 22 2.0 5.0 0.00 0.00 0.00 64 1015.4
20260502201931 69 359 6.0 9.0 0.00 0.00 0.00 63 1015.5
20260502201427 69 330 4.0 6.0 0.00 0.00 0.00 64 1015.6
20260502200924 68 337 2.0 3.0 0.00 0.00 0.00 66 1015.6
20260502200419 68 350 6.0 6.0 0.00 0.00 0.00 67 1015.6
20260502195917 67 320 2.0 2.0 0.00 0.00 0.00 67 1015.7
20260502195414 68 303 5.0 7.0 0.00 0.00 0.00 66 1015.8
20260502194910 66 351 5.0 7.0 0.00 0.00 0.00 69 1016.1
20260502194408 66 4 5.0 7.0 0.00 0.00 0.00 70 1016.0
20260502193903 65 351 5.0 7.0 0.00 0.00 0.00 71 1015.9
20260502193401 66 7 5.0 8.0 0.00 0.00 0.00 69 1016.2
20260502192856 66 268 3.0 3.0 0.00 0.00 0.00 69 1016.2
20260502192353 66 317 4.0 6.0 0.00 0.00 0.00 69 1016.1
20260502191850 64 331 4.0 6.0 0.00 0.00 0.00 72 1016.3
20260502191348 66 318 3.0 3.0 0.00 0.00 0.00 71 1016.3
20260502190845 64 321 0.0 0.0 0.00 0.00 0.00 74 1016.1
20260502190343 63 340 7.0 8.0 0.00 0.00 0.00 74 1016.2
20260502185838 64 315 6.0 7.0 0.00 0.00 0.00 73 1016.4
20260502185334 65 30 3.0 3.0 0.00 0.00 0.00 73 1016.3
20260502184831 64 304 8.0 10.0 0.00 0.00 0.00 72 1016.2
20260502184326 65 318 1.0 1.0 0.00 0.00 0.00 71 1016.3
20260502183824 63 272 5.0 8.0 0.00 0.00 0.00 74 1016.1
20260502183320 63 334 6.0 7.0 0.00 0.00 0.00 74 1016.3
20260502182815 64 290 3.0 6.0 0.00 0.00 0.00 73 1016.2
20260502182310 65 356 3.0 5.0 0.00 0.00 0.00 71 1016.3
20260502181807 63 344 4.0 6.0 0.00 0.00 0.00 74 1016.5
20260502181306 64 313 7.0 8.0 0.00 0.00 0.00 73 1016.4
20260502180803 64 13 4.0 6.0 0.00 0.00 0.00 73 1016.3
20260502180301 63 356 3.0 5.0 0.00 0.00 0.00 73 1016.5
20260502170220 60 316 1.0 2.0 0.00 0.00 0.00 77 1016.9
20260502164207 59 64 2.0 3.0 0.00 0.00 0.00 79 1017.1
20260502163702 59 334 0.0 0.0 0.00 0.00 0.00 80 1017.1
20260502163159 58 25 2.0 2.0 0.00 0.00 0.00 81 1016.9
20260502162656 58 21 3.0 5.0 0.00 0.00 0.00 81 1017.1
20260502162153 58 25 3.0 3.0 0.00 0.00 0.00 82 1017.1
20260502161650 57 12 7.0 8.0 0.00 0.00 0.00 82 1016.7
20260502161147 57 2 2.0 2.0 0.00 0.00 0.00 83 1016.9
20260502160645 56 335 5.0 7.0 0.00 0.00 0.00 84 1017.0
20260502160144 56 334 1.0 1.0 0.00 0.00 0.00 85 1017.0
20260502152057 54 308 1.0 1.0 0.00 0.00 0.00 89 1016.6
20260502151554 54 343 0.0 0.0 0.00 0.00 0.00 90 1016.7
20260502151052 53 316 0.0 0.0 0.00 0.00 0.00 91 1016.8
20260502150549 53 318 0.0 0.0 0.00 0.00 0.00 92 1016.5
20260502130434 50 300 0.0 0.0 0.00 0.00 0.00 94 1016.8
20260502123416 50 313 0.0 0.0 0.00 0.00 0.00 93 1016.8
20260502122914 50 303 0.0 0.0 0.00 0.00 0.00 93 1016.7
20260502122410 50 300 0.0 0.0 0.00 0.00 0.00 93 1016.9
20260502121908 50 310 0.0 0.0 0.00 0.00 0.00 93 1016.6
20260502121405 51 296 0.0 0.0 0.00 0.00 0.00 93 1016.9
20260502120902 50 309 0.0 0.0 0.00 0.00 0.00 93 1016.8
20260502120358 51 322 0.0 0.0 0.00 0.00 0.00 93 1016.7
20260502115856 51 345 1.0 1.0 0.00 0.00 0.00 93 1016.8
20260502115353 51 333 1.0 1.0 0.00 0.00 0.00 93 1016.8
20260502114849 51 293 2.0 2.0 0.00 0.00 0.00 93 1016.9
20260502114346 51 305 1.0 1.0 0.00 0.00 0.00 92 1016.7
20260502113843 51 312 1.0 1.0 0.00 0.00 0.00 92 1017.0
20260502113341 51 305 0.0 0.0 0.00 0.00 0.00 92 1017.2
20260502112839 51 257 1.0 2.0 0.00 0.00 0.00 92 1017.2
20260502112336 51 297 2.0 2.0 0.00 0.00 0.00 92 1017.3
20260502111834 51 258 1.0 2.0 0.00 0.00 0.00 92 1017.2
20260502111331 51 244 3.0 3.0 0.00 0.00 0.00 92 1017.2
20260502110828 51 230 2.0 3.0 0.00 0.00 0.00 92 1017.4
20260502110326 51 271 1.0 2.0 0.00 0.00 0.00 92 1017.3
20260502105823 51 283 1.0 2.0 0.00 0.00 0.00 92 1017.0
20260502105320 51 288 0.0 1.0 0.00 0.00 0.00 92 1016.7
20260502104818 52 285 0.0 0.0 0.00 0.00 0.00 92 1016.6
20260502104315 52 277 0.0 1.0 0.00 0.00 0.00 92 1016.7
20260502103812 52 281 0.0 0.0 0.00 0.00 0.00 92 1016.5
20260502103309 52 283 0.0 0.0 0.00 0.00 0.00 92 1016.5
20260502102807 52 274 1.0 2.0 0.00 0.00 0.00 92 1016.5
20260502102306 52 249 2.0 2.0 0.00 0.00 0.00 91 1016.4
20260502101801 52 281 0.0 0.0 0.00 0.00 0.00 91 1016.5
20260502101259 52 290 2.0 3.0 0.00 0.00 0.00 91 1016.4
20260502100756 52 288 3.0 5.0 0.00 0.00 0.00 91 1016.4
20260502100255 52 296 1.0 1.0 0.00 0.00 0.00 90 1016.6
20260502091229 54 277 1.0 1.0 0.00 0.00 0.00 86 1016.8
20260502090727 54 279 0.0 0.0 0.00 0.00 0.00 86 1016.7
20260502090223 54 295 0.0 0.0 0.00 0.00 0.00 86 1016.8
20260502071119 58 43 2.0 3.0 0.00 0.00 0.00 70 1016.1
20260502070617 58 341 0.0 0.0 0.00 0.00 0.00 72 1016.4
20260502070115 58 333 0.0 0.0 0.00 0.00 0.00 72 1016.3
20260502065613 57 316 0.0 0.0 0.00 0.00 0.00 74 1016.1
20260502065110 58 309 0.0 0.0 0.00 0.00 0.00 74 1015.9
20260502064609 58 315 0.0 0.0 0.00 0.00 0.00 74 1016.1
20260502064105 58 303 0.0 0.0 0.00 0.00 0.00 74 1016.1
20260502063603 59 301 0.0 0.0 0.00 0.00 0.00 72 1016.2
20260502063101 59 311 0.0 0.0 0.00 0.00 0.00 68 1016.1
20260502062558 59 315 0.0 0.0 0.00 0.00 0.00 67 1016.1
20260502062055 59 337 0.0 0.0 0.00 0.00 0.00 66 1016.2
20260502061553 60 338 0.0 0.0 0.00 0.00 0.00 66 1016.1
20260502061050 60 13 3.0 3.0 0.00 0.00 0.00 66 1016.2
20260502060545 60 1 1.0 1.0 0.00 0.00 0.00 66 1016.0
20260502060042 60 29 2.0 2.0 0.00 0.00 0.00 66 1015.8
20260502055540 60 11 2.0 2.0 0.00 0.00 0.00 66 1016.2
20260502055038 60 334 1.0 1.0 0.00 0.00 0.00 66 1016.1
20260502054537 60 350 3.0 3.0 0.00 0.00 0.00 65 1015.9
20260502054033 60 5 1.0 1.0 0.00 0.00 0.00 65 1016.0
20260502053530 61 30 2.0 3.0 0.00 0.00 0.00 64 1015.8
20260502053028 61 6 2.0 2.0 0.00 0.00 0.00 64 1015.8
20260502052526 61 25 1.0 1.0 0.00 0.00 0.00 64 1015.8
20260502052024 61 21 3.0 3.0 0.00 0.00 0.00 63 1015.8
20260502051522 62 3 1.0 2.0 0.00 0.00 0.00 62 1015.7
20260502051020 62 28 0.0 1.0 0.00 0.00 0.00 62 1015.7
20260502050515 62 338 0.0 1.0 0.00 0.00 0.00 61 1015.7
20260502050013 62 6 1.0 2.0 0.00 0.00 0.00 60 1015.5
20260502045509 62 25 0.0 1.0 0.00 0.00 0.00 60 1015.6
20260502045006 62 3 0.0 1.0 0.00 0.00 0.00 60 1015.8
20260502044503 62 341 2.0 3.0 0.00 0.00 0.00 60 1015.6
20260502043959 63 339 1.0 1.0 0.00 0.00 0.00 60 1015.4
20260502043457 63 3 3.0 3.0 0.00 0.00 0.00 60 1015.5
20260502042956 63 335 2.0 2.0 0.00 0.00 0.00 59 1015.2
20260502042453 63 355 1.0 2.0 0.00 0.00 0.00 59 1015.4
20260502041951 63 359 3.0 5.0 0.00 0.00 0.00 59 1015.2
20260502041448 63 357 3.0 5.0 0.00 0.00 0.00 59 1015.1
20260502040945 63 338 5.0 6.0 0.00 0.00 0.00 60 1015.2
20260502040442 63 13 4.0 5.0 0.00 0.00 0.00 60 1015.1
20260502035938 63 20 1.0 2.0 0.00 0.00 0.00 60 1015.1
20260502035434 63 352 2.0 2.0 0.00 0.00 0.00 60 1015.0
20260502034932 64 52 2.0 2.0 0.00 0.00 0.00 60 1015.0
20260502034431 63 17 0.0 1.0 0.00 0.00 0.00 59 1015.1
20260502033929 64 12 1.0 1.0 0.00 0.00 0.00 59 1015.1
20260502033426 64 26 4.0 6.0 0.00 0.00 0.00 58 1014.8
20260502032922 64 35 3.0 5.0 0.00 0.00 0.00 57 1014.9
20260502032419 64 55 3.0 3.0 0.00 0.00 0.00 57 1014.9
20260502031916 64 5 5.0 6.0 0.00 0.00 0.00 56 1014.9
20260502031415 64 4 2.0 3.0 0.00 0.00 0.00 57 1014.8
20260502030913 64 14 2.0 3.0 0.00 0.00 0.00 56 1014.7
20260502030411 64 334 3.0 5.0 0.00 0.00 0.00 56 1014.3
20260502025908 64 6 1.0 2.0 0.00 0.00 0.00 57 1014.5
20260502025405 64 338 1.0 1.0 0.00 0.00 0.00 59 1014.6
20260502024903 64 17 2.0 2.0 0.00 0.00 0.00 60 1014.6
20260502024401 65 354 3.0 3.0 0.00 0.00 0.00 61 1014.3
20260502023858 65 9 5.0 6.0 0.00 0.00 0.00 61 1014.6
20260502023355 65 337 1.0 1.0 0.00 0.00 0.00 61 1014.4
20260502022853 65 353 3.0 5.0 0.00 0.00 0.00 61 1014.4
20260502022349 65 2 3.0 5.0 0.00 0.00 0.00 61 1014.4
20260502021846 65 29 4.0 5.0 0.00 0.00 0.00 62 1014.2
20260502021344 65 330 4.0 6.0 0.00 0.00 0.00 62 1014.2
20260502020841 65 6 7.0 11.0 0.00 0.00 0.00 61 1014.0
20260502020338 65 26 7.0 9.0 0.00 0.00 0.00 61 1014.5
20260502015835 65 7 4.0 6.0 0.00 0.00 0.00 61 1014.3
20260502015332 66 317 2.0 3.0 0.00 0.00 0.00 61 1014.3
20260502014829 66 355 3.0 5.0 0.00 0.00 0.00 60 1014.3
20260502014326 66 336 0.0 1.0 0.00 0.00 0.00 59 1014.2
20260502013822 66 325 3.0 3.0 0.00 0.00 0.00 59 1014.3
20260502013318 66 337 3.0 6.0 0.00 0.00 0.00 59 1014.4
20260502012815 67 2 3.0 3.0 0.00 0.00 0.00 58 1014.5
20260502012313 67 292 1.0 2.0 0.00 0.00 0.00 57 1014.4
20260502011810 66 301 0.0 0.0 0.00 0.00 0.00 59 1014.3
20260502011306 67 311 2.0 2.0 0.00 0.00 0.00 58 1014.5
20260502010803 66 335 2.0 3.0 0.00 0.00 0.00 58 1014.4
20260502010259 66 347 6.0 10.0 0.00 0.00 0.00 59 1014.5
20260502005756 66 313 12.0 14.0 0.00 0.00 0.00 58 1014.6
20260502005255 66 323 5.0 7.0 0.00 0.00 0.00 58 1014.3
20260502004751 66 292 6.0 8.0 0.00 0.00 0.00 59 1014.1
20260502004247 66 327 4.0 6.0 0.00 0.00 0.00 58 1014.4
20260502003745 66 334 5.0 9.0 0.00 0.00 0.00 58 1014.2
20260502003243 67 301 6.0 8.0 0.00 0.00 0.00 57 1014.4
20260502002738 67 299 5.0 8.0 0.00 0.00 0.00 55 1014.3
20260502002236 68 322 5.0 8.0 0.00 0.00 0.00 54 1014.4
20260502001732 69 10 10.0 14.0 0.00 0.00 0.00 52 1014.4
20260502001231 68 338 2.0 3.0 0.00 0.00 0.00 52 1014.4
20260502000728 68 2 6.0 9.0 0.00 0.00 0.00 52 1014.4
20260502000226 68 2 12.0 16.0 0.00 0.00 0.00 53 1014.3
20260501235721 68 264 4.0 6.0 0.00 0.00 0.00 53 1014.1
20260501235218 67 353 6.0 9.0 0.00 0.00 0.00 54 1014.2
20260501234713 67 5 7.0 13.0 0.00 0.00 0.00 53 1014.3
20260501234211 67 314 9.0 11.0 0.00 0.00 0.00 53 1014.4
20260501233709 67 342 12.0 15.0 0.00 0.00 0.00 53 1014.4
20260501233206 68 320 11.0 14.0 0.00 0.00 0.00 53 1014.4
20260501232701 67 308 12.0 18.0 0.00 0.00 0.00 54 1014.5
20260501232159 69 339 7.0 13.0 0.00 0.00 0.00 53 1014.4
20260501231657 68 356 3.0 5.0 0.00 0.00 0.00 54 1014.5
20260501231155 68 357 9.0 13.0 0.00 0.00 0.00 54 1014.5
20260501230653 69 293 7.0 13.0 0.00 0.00 0.00 55 1014.8
20260501230151 67 11 7.0 8.0 0.00 0.00 0.00 55 1014.8
20260501225648 69 42 5.0 7.0 0.00 0.00 0.00 54 1014.8
20260501225144 69 17 7.0 7.0 0.00 0.00 0.00 54 1015.0
20260501224641 67 8 3.0 7.0 0.00 0.00 0.00 56 1014.9
20260501224138 68 322 10.0 14.0 0.00 0.00 0.00 54 1014.9
20260501223635 69 341 9.0 11.0 0.00 0.00 0.00 53 1015.0
20260501223132 70 3 8.0 14.0 0.00 0.00 0.00 52 1015.0
20260501222627 68 1 3.0 8.0 0.00 0.00 0.00 55 1014.9